| time (UTC) | temp F | wind direction | speed knots | gust knots | rain 1hr in | rain 24hr in | rain mn in | humidity % | barometer mb |
| 20260906234314 | 93 | 135 | 0.0 | 2.6 | 0.00 | 0.00 | 0.00 | 18 | 1017.2 |
| 20260906233827 | 93 | 234 | 0.0 | 3.5 | 0.00 | 0.00 | 0.00 | 18 | 1017.2 |
| 20260906233324 | 93 | 232 | 0.9 | 5.2 | 0.00 | 0.00 | 0.00 | 18 | 1017.2 |
| 20260906232825 | 93 | 208 | 0.9 | 5.2 | 0.00 | 0.00 | 0.00 | 18 | 1017.4 |
| 20260906232324 | 93 | 240 | 0.0 | 5.2 | 0.00 | 0.00 | 0.00 | 19 | 1017.3 |
| 20260906231844 | 93 | 232 | 0.9 | 2.6 | 0.00 | 0.00 | 0.00 | 18 | 1017.4 |
| 20260906231335 | 93 | 227 | 0.0 | 3.5 | 0.00 | 0.00 | 0.00 | 19 | 1017.3 |
| 20260906230806 | 93 | 215 | 0.9 | 5.2 | 0.00 | 0.00 | 0.00 | 18 | 1017.3 |
| 20260906230322 | 94 | 192 | 0.0 | 5.2 | 0.00 | 0.00 | 0.00 | 18 | 1017.3 |
| 20260906225824 | 94 | 212 | 0.9 | 4.3 | 0.00 | 0.00 | 0.00 | 17 | 1017.2 |
| 20260906225306 | 93 | 213 | 0.0 | 4.3 | 0.00 | 0.00 | 0.00 | 17 | 1017.2 |
| 20260906224801 | 93 | 278 | 0.0 | 4.3 | 0.00 | 0.00 | 0.00 | 18 | 1017.2 |
| 20260906224301 | 93 | 269 | 0.9 | 8.7 | 0.00 | 0.00 | 0.00 | 18 | 1017.1 |
| 20260906223831 | 94 | 246 | 2.6 | 8.7 | 0.00 | 0.00 | 0.00 | 18 | 1017.3 |
| 20260906223346 | 94 | 214 | 2.6 | 6.1 | 0.00 | 0.00 | 0.00 | 17 | 1017.3 |
| 20260906222808 | 93 | 256 | 0.9 | 7.0 | 0.00 | 0.00 | 0.00 | 18 | 1017.4 |
| 20260906222322 | 93 | 221 | 2.6 | 7.0 | 0.00 | 0.00 | 0.00 | 18 | 1017.3 |
| 20260906221826 | 94 | 213 | 0.9 | 6.1 | 0.00 | 0.00 | 0.00 | 17 | 1017.4 |
| 20260906221315 | 94 | 238 | 1.7 | 6.1 | 0.00 | 0.00 | 0.00 | 17 | 1017.5 |
| 20260906220821 | 93 | 220 | 1.7 | 6.1 | 0.00 | 0.00 | 0.00 | 17 | 1017.6 |
| 20260906220316 | 93 | 242 | 0.9 | 6.1 | 0.00 | 0.00 | 0.00 | 17 | 1017.7 |
| 20260906215843 | 94 | 239 | 0.9 | 6.1 | 0.00 | 0.00 | 0.00 | 16 | 1017.8 |
| 20260906215345 | 94 | 209 | 0.9 | 6.1 | 0.00 | 0.00 | 0.00 | 17 | 1017.9 |
| 20260906214801 | 94 | 219 | 2.6 | 9.6 | 0.00 | 0.00 | 0.00 | 17 | 1018.0 |
| 20260906214321 | 94 | 227 | 4.3 | 9.6 | 0.00 | 0.00 | 0.00 | 17 | 1018.2 |
| 20260906213844 | 95 | 336 | 0.9 | 5.2 | 0.00 | 0.00 | 0.00 | 17 | 1018.3 |
| 20260906213316 | 94 | 302 | 0.9 | 5.2 | 0.00 | 0.00 | 0.00 | 17 | 1018.3 |
| 20260906212841 | 93 | 230 | 2.6 | 5.2 | 0.00 | 0.00 | 0.00 | 17 | 1018.5 |
| 20260906212306 | 93 | 316 | 0.0 | 4.3 | 0.00 | 0.00 | 0.00 | 17 | 1018.6 |
| 20260906211805 | 93 | 315 | 0.0 | 3.5 | 0.00 | 0.00 | 0.00 | 17 | 1018.7 |
| 20260906211344 | 93 | 225 | 0.0 | 4.3 | 0.00 | 0.00 | 0.00 | 17 | 1018.9 |
| 20260906210843 | 92 | 237 | 1.7 | 4.3 | 0.00 | 0.00 | 0.00 | 17 | 1018.9 |
| 20260906210346 | 93 | 252 | 0.9 | 4.3 | 0.00 | 0.00 | 0.00 | 17 | 1019.0 |
| 20260906205811 | 93 | 274 | 0.0 | 4.3 | 0.00 | 0.00 | 0.00 | 17 | 1018.7 |
| 20260906205316 | 93 | 283 | 0.9 | 5.2 | 0.00 | 0.00 | 0.00 | 18 | 1018.9 |
| 20260906204802 | 92 | 351 | 0.0 | 5.2 | 0.00 | 0.00 | 0.00 | 17 | 1018.9 |
| 20260906204307 | 92 | 307 | 0.9 | 7.0 | 0.00 | 0.00 | 0.00 | 17 | 1019.0 |
| 20260906203811 | 92 | 246 | 0.9 | 7.8 | 0.00 | 0.00 | 0.00 | 16 | 1019.0 |
| 20260906203341 | 92 | 279 | 2.6 | 7.8 | 0.00 | 0.00 | 0.00 | 17 | 1019.1 |
| 20260906202834 | 93 | 271 | 1.7 | 5.2 | 0.00 | 0.00 | 0.00 | 16 | 1019.1 |
| 20260906202333 | 92 | 264 | 0.0 | 3.5 | 0.00 | 0.00 | 0.00 | 16 | 1019.2 |
| 20260906201811 | 93 | 264 | 0.9 | 3.5 | 0.00 | 0.00 | 0.00 | 18 | 1019.2 |
| 20260906201346 | 92 | 306 | 0.9 | 4.3 | 0.00 | 0.00 | 0.00 | 18 | 1019.3 |
| 20260906200824 | 91 | 264 | 0.9 | 4.3 | 0.00 | 0.00 | 0.00 | 17 | 1019.4 |
| 20260906200305 | 90 | 223 | 0.9 | 4.3 | 0.00 | 0.00 | 0.00 | 17 | 1019.4 |
| 20260906195843 | 91 | 316 | 0.9 | 6.1 | 0.00 | 0.00 | 0.00 | 18 | 1019.4 |
| 20260906195322 | 91 | 259 | 2.6 | 6.1 | 0.00 | 0.00 | 0.00 | 18 | 1019.6 |
| 20260906194812 | 92 | 50 | 0.9 | 9.6 | 0.00 | 0.00 | 0.00 | 17 | 1019.5 |
| 20260906194315 | 92 | 215 | 2.6 | 9.6 | 0.00 | 0.00 | 0.00 | 16 | 1019.7 |
| 20260906193826 | 93 | 281 | 0.9 | 3.5 | 0.00 | 0.00 | 0.00 | 17 | 1019.6 |
| 20260906193332 | 93 | 221 | 0.0 | 4.3 | 0.00 | 0.00 | 0.00 | 16 | 1019.7 |
| 20260906192845 | 91 | 215 | 0.9 | 4.3 | 0.00 | 0.00 | 0.00 | 18 | 1019.8 |
| 20260906192321 | 90 | 244 | 0.0 | 2.6 | 0.00 | 0.00 | 0.00 | 19 | 1019.8 |
| 20260906191837 | 92 | 240 | 0.9 | 2.6 | 0.00 | 0.00 | 0.00 | 18 | 1019.9 |
| 20260906191307 | 92 | 174 | 0.0 | 4.3 | 0.00 | 0.00 | 0.00 | 17 | 1020.0 |
| 20260906190823 | 91 | 244 | 2.6 | 6.1 | 0.00 | 0.00 | 0.00 | 20 | 1020.3 |
| 20260906190311 | 91 | 251 | 2.6 | 6.1 | 0.00 | 0.00 | 0.00 | 21 | 1020.2 |
| 20260906185815 | 91 | 335 | 0.9 | 6.1 | 0.00 | 0.00 | 0.00 | 20 | 1020.3 |
| 20260906185344 | 90 | 304 | 0.9 | 5.2 | 0.00 | 0.00 | 0.00 | 21 | 1020.5 |
| 20260906184840 | 89 | 306 | 0.0 | 2.6 | 0.00 | 0.00 | 0.00 | 21 | 1020.3 |
| 20260906184301 | 90 | 322 | 0.0 | 4.3 | 0.00 | 0.00 | 0.00 | 21 | 1020.5 |
| 20260906183802 | 89 | 356 | 0.0 | 5.2 | 0.00 | 0.00 | 0.00 | 22 | 1020.6 |
| 20260906183312 | 88 | 288 | 0.9 | 5.2 | 0.00 | 0.00 | 0.00 | 24 | 1020.7 |
| 20260906182829 | 89 | 237 | 0.0 | 4.3 | 0.00 | 0.00 | 0.00 | 23 | 1020.8 |
| 20260906182337 | 88 | 241 | 2.6 | 4.3 | 0.00 | 0.00 | 0.00 | 24 | 1020.9 |
| 20260906181806 | 87 | 340 | 0.0 | 0.9 | 0.00 | 0.00 | 0.00 | 24 | 1021.0 |
| 20260906181336 | 87 | 314 | 0.0 | 0.9 | 0.00 | 0.00 | 0.00 | 26 | 1021.4 |
| 20260906180810 | 87 | 137 | 0.0 | 1.7 | 0.00 | 0.00 | 0.00 | 25 | 1021.2 |
| 20260906180329 | 87 | 224 | 0.0 | 3.5 | 0.00 | 0.00 | 0.00 | 25 | 1021.5 |
| 20260906175817 | 87 | 226 | 0.9 | 4.3 | 0.00 | 0.00 | 0.00 | 26 | 1021.6 |
| 20260906175316 | 87 | 223 | 0.9 | 4.3 | 0.00 | 0.00 | 0.00 | 25 | 1021.6 |
| 20260906174845 | 86 | 227 | 0.9 | 4.3 | 0.00 | 0.00 | 0.00 | 26 | 1021.6 |
| 20260906174303 | 85 | 239 | 0.0 | 0.9 | 0.00 | 0.00 | 0.00 | 26 | 1021.6 |
| 20260906173821 | 85 | 254 | 0.0 | 3.5 | 0.00 | 0.00 | 0.00 | 28 | 1021.8 |
| 20260906173304 | 84 | 248 | 0.0 | 3.5 | 0.00 | 0.00 | 0.00 | 27 | 1021.7 |
| 20260906172802 | 85 | 247 | 0.0 | 0.9 | 0.00 | 0.00 | 0.00 | 27 | 1021.8 |
| 20260906172315 | 85 | 223 | 0.0 | 3.5 | 0.00 | 0.00 | 0.00 | 26 | 1021.8 |
| 20260906171814 | 85 | 217 | 0.9 | 4.3 | 0.00 | 0.00 | 0.00 | 27 | 1021.8 |
| 20260906171305 | 85 | 217 | 0.9 | 4.3 | 0.00 | 0.00 | 0.00 | 28 | 1022.0 |
| 20260906170823 | 85 | 232 | 0.0 | 4.3 | 0.00 | 0.00 | 0.00 | 27 | 1022.0 |
| 20260906170305 | 85 | 284 | 0.0 | 4.3 | 0.00 | 0.00 | 0.00 | 28 | 1022.1 |
| 20260906165816 | 85 | 279 | 0.0 | 1.7 | 0.00 | 0.00 | 0.00 | 28 | 1022.0 |
| 20260906165317 | 85 | 189 | 0.0 | 5.2 | 0.00 | 0.00 | 0.00 | 28 | 1022.0 |
| 20260906164834 | 85 | 227 | 1.7 | 5.2 | 0.00 | 0.00 | 0.00 | 28 | 1022.2 |
| 20260906164319 | 83 | 242 | 0.0 | 0.0 | 0.00 | 0.00 | 0.00 | 31 | 1022.4 |
| 20260906163832 | 82 | 305 | 0.0 | 0.0 | 0.00 | 0.00 | 0.00 | 32 | 1022.2 |
| 20260906163303 | 81 | 309 | 0.0 | 0.0 | 0.00 | 0.00 | 0.00 | 31 | 1022.4 |
| 20260906162816 | 79 | 309 | 0.0 | 0.0 | 0.00 | 0.00 | 0.00 | 34 | 1022.0 |
| 20260906162344 | 78 | 309 | 0.0 | 0.0 | 0.00 | 0.00 | 0.00 | 35 | 1022.1 |
| 20260906161816 | 78 | 309 | 0.0 | 0.0 | 0.00 | 0.00 | 0.00 | 36 | 1022.0 |
| 20260906161306 | 77 | 309 | 0.0 | 0.0 | 0.00 | 0.00 | 0.00 | 36 | 1022.1 |
| 20260906160807 | 77 | 309 | 0.0 | 0.0 | 0.00 | 0.00 | 0.00 | 37 | 1022.1 |
| 20260906160333 | 76 | 309 | 0.0 | 0.0 | 0.00 | 0.00 | 0.00 | 38 | 1022.2 |
| 20260906155834 | 76 | 304 | 0.0 | 0.0 | 0.00 | 0.00 | 0.00 | 39 | 1022.2 |
| 20260906155332 | 76 | 304 | 0.0 | 1.7 | 0.00 | 0.00 | 0.00 | 39 | 1022.1 |
| 20260906154805 | 76 | 300 | 0.0 | 1.7 | 0.00 | 0.00 | 0.00 | 39 | 1022.1 |
| 20260906154344 | 76 | 272 | 0.0 | 2.6 | 0.00 | 0.00 | 0.00 | 39 | 1022.1 |
| 20260906153838 | 75 | 271 | 0.9 | 2.6 | 0.00 | 0.00 | 0.00 | 40 | 1022.1 |
| 20260906153332 | 75 | 272 | 0.0 | 0.0 | 0.00 | 0.00 | 0.00 | 39 | 1022.0 |
| 20260906152823 | 75 | 272 | 0.0 | 0.0 | 0.00 | 0.00 | 0.00 | 41 | 1022.0 |
| 20260906152328 | 75 | 272 | 0.0 | 0.0 | 0.00 | 0.00 | 0.00 | 40 | 1022.0 |
| 20260906151846 | 74 | 273 | 0.0 | 0.0 | 0.00 | 0.00 | 0.00 | 41 | 1022.1 |
| 20260906151346 | 74 | 273 | 0.0 | 0.9 | 0.00 | 0.00 | 0.00 | 41 | 1022.1 |
| 20260906150842 | 74 | 273 | 0.0 | 1.7 | 0.00 | 0.00 | 0.00 | 41 | 1022.0 |
| 20260906150341 | 74 | 269 | 0.0 | 2.6 | 0.00 | 0.00 | 0.00 | 40 | 1022.0 |
| 20260906145826 | 74 | 270 | 0.0 | 2.6 | 0.00 | 0.00 | 0.00 | 41 | 1022.1 |
| 20260906145337 | 73 | 293 | 0.0 | 4.3 | 0.00 | 0.00 | 0.00 | 40 | 1021.9 |
| 20260906144806 | 74 | 261 | 1.7 | 4.3 | 0.00 | 0.00 | 0.00 | 39 | 1021.8 |
| 20260906144328 | 75 | 269 | 1.7 | 3.5 | 0.00 | 0.00 | 0.00 | 39 | 1021.9 |
| 20260906143846 | 74 | 278 | 0.9 | 3.5 | 0.00 | 0.00 | 0.00 | 39 | 1021.7 |
| 20260906143343 | 75 | 284 | 0.0 | 0.0 | 0.00 | 0.00 | 0.00 | 38 | 1021.8 |
| 20260906142816 | 74 | 287 | 0.0 | 2.6 | 0.00 | 0.00 | 0.00 | 39 | 1021.8 |
| 20260906142323 | 73 | 288 | 0.0 | 2.6 | 0.00 | 0.00 | 0.00 | 41 | 1021.5 |
| 20260906141832 | 71 | 301 | 0.9 | 1.7 | 0.00 | 0.00 | 0.00 | 43 | 1021.8 |
| 20260906141322 | 70 | 348 | 0.0 | 0.0 | 0.00 | 0.00 | 0.00 | 45 | 1021.8 |
| 20260906140803 | 70 | 348 | 0.0 | 0.0 | 0.00 | 0.00 | 0.00 | 45 | 1021.7 |
| 20260906140322 | 70 | 348 | 0.0 | 0.0 | 0.00 | 0.00 | 0.00 | 44 | 1021.6 |
| 20260906135806 | 70 | 348 | 0.0 | 0.0 | 0.00 | 0.00 | 0.00 | 44 | 1021.6 |
| 20260906135346 | 70 | 348 | 0.0 | 0.0 | 0.00 | 0.00 | 0.00 | 43 | 1021.5 |
| 20260906134804 | 69 | 348 | 0.0 | 0.9 | 0.00 | 0.00 | 0.00 | 43 | 1021.5 |
| 20260906134331 | 69 | 348 | 0.0 | 0.9 | 0.00 | 0.00 | 0.00 | 43 | 1021.4 |
| 20260906133841 | 69 | 348 | 0.0 | 0.9 | 0.00 | 0.00 | 0.00 | 43 | 1021.4 |
| 20260906133339 | 69 | 348 | 0.0 | 0.0 | 0.00 | 0.00 | 0.00 | 44 | 1021.4 |
| 20260906132821 | 69 | 348 | 0.0 | 0.0 | 0.00 | 0.00 | 0.00 | 44 | 1021.3 |
| 20260906132337 | 69 | 348 | 0.0 | 0.0 | 0.00 | 0.00 | 0.00 | 42 | 1021.3 |
| 20260906131827 | 69 | 347 | 0.0 | 2.6 | 0.00 | 0.00 | 0.00 | 42 | 1021.3 |
| 20260906131339 | 69 | 347 | 0.0 | 2.6 | 0.00 | 0.00 | 0.00 | 42 | 1021.3 |
| 20260906130825 | 68 | 326 | 0.0 | 0.9 | 0.00 | 0.00 | 0.00 | 43 | 1021.3 |
| 20260906130303 | 68 | 20 | 0.0 | 0.0 | 0.00 | 0.00 | 0.00 | 44 | 1021.3 |
| 20260906125842 | 68 | 21 | 0.0 | 0.0 | 0.00 | 0.00 | 0.00 | 45 | 1021.2 |
| 20260906125346 | 67 | 21 | 0.0 | 0.0 | 0.00 | 0.00 | 0.00 | 45 | 1021.1 |
| 20260906124827 | 67 | 21 | 0.0 | 0.0 | 0.00 | 0.00 | 0.00 | 46 | 1020.9 |
| 20260906124319 | 67 | 21 | 0.0 | 0.0 | 0.00 | 0.00 | 0.00 | 47 | 1020.9 |
| 20260906123801 | 66 | 21 | 0.0 | 0.0 | 0.00 | 0.00 | 0.00 | 49 | 1020.9 |
| 20260906123301 | 67 | 21 | 0.0 | 0.0 | 0.00 | 0.00 | 0.00 | 49 | 1020.8 |
| 20260906122803 | 67 | 21 | 0.0 | 0.0 | 0.00 | 0.00 | 0.00 | 49 | 1020.8 |
| 20260906122321 | 67 | 21 | 0.0 | 0.0 | 0.00 | 0.00 | 0.00 | 48 | 1020.8 |
| 20260906121823 | 67 | 21 | 0.0 | 0.0 | 0.00 | 0.00 | 0.00 | 48 | 1020.8 |
| 20260906121304 | 67 | 21 | 0.0 | 0.0 | 0.00 | 0.00 | 0.00 | 48 | 1020.7 |
| 20260906120802 | 68 | 21 | 0.0 | 0.0 | 0.00 | 0.00 | 0.00 | 48 | 1020.7 |
| 20260906120344 | 68 | 21 | 0.0 | 0.0 | 0.00 | 0.00 | 0.00 | 48 | 1020.6 |
| 20260906115807 | 68 | 21 | 0.0 | 0.0 | 0.00 | 0.00 | 0.00 | 48 | 1020.6 |
| 20260906115333 | 68 | 21 | 0.0 | 0.0 | 0.00 | 0.00 | 0.00 | 48 | 1020.8 |
| 20260906114811 | 68 | 21 | 0.0 | 0.0 | 0.00 | 0.00 | 0.00 | 48 | 1020.8 |
| 20260906114325 | 68 | 21 | 0.0 | 0.0 | 0.00 | 0.00 | 0.00 | 49 | 1020.9 |
| 20260906113824 | 68 | 21 | 0.0 | 0.0 | 0.00 | 0.00 | 0.00 | 49 | 1020.8 |
| 20260906113309 | 68 | 21 | 0.0 | 0.0 | 0.00 | 0.00 | 0.00 | 49 | 1020.8 |
| 20260906112821 | 68 | 21 | 0.0 | 0.0 | 0.00 | 0.00 | 0.00 | 50 | 1021.0 |
| 20260906112322 | 69 | 21 | 0.0 | 0.0 | 0.00 | 0.00 | 0.00 | 50 | 1021.0 |
| 20260906111843 | 69 | 21 | 0.0 | 0.0 | 0.00 | 0.00 | 0.00 | 50 | 1021.0 |
| 20260906111321 | 70 | 21 | 0.0 | 0.0 | 0.00 | 0.00 | 0.00 | 48 | 1020.8 |
| 20260906110834 | 70 | 21 | 0.0 | 0.0 | 0.00 | 0.00 | 0.00 | 47 | 1020.7 |
| 20260906110316 | 70 | 21 | 0.0 | 0.0 | 0.00 | 0.00 | 0.00 | 48 | 1020.9 |
| 20260906105819 | 70 | 21 | 0.0 | 0.0 | 0.00 | 0.00 | 0.00 | 49 | 1021.0 |
| 20260906105325 | 70 | 21 | 0.0 | 0.0 | 0.00 | 0.00 | 0.00 | 48 | 1021.0 |
| 20260906104804 | 70 | 21 | 0.0 | 0.0 | 0.00 | 0.00 | 0.00 | 49 | 1021.0 |
| 20260906104308 | 70 | 21 | 0.0 | 0.0 | 0.00 | 0.00 | 0.00 | 49 | 1021.0 |
| 20260906103840 | 70 | 21 | 0.0 | 0.0 | 0.00 | 0.00 | 0.00 | 49 | 1021.0 |
| 20260906103307 | 71 | 21 | 0.0 | 0.0 | 0.00 | 0.00 | 0.00 | 49 | 1020.9 |
| 20260906102804 | 71 | 21 | 0.0 | 0.0 | 0.00 | 0.00 | 0.00 | 48 | 1020.9 |
| 20260906102306 | 71 | 21 | 0.0 | 0.0 | 0.00 | 0.00 | 0.00 | 48 | 1021.0 |
| 20260906101802 | 71 | 21 | 0.0 | 0.0 | 0.00 | 0.00 | 0.00 | 49 | 1021.0 |
| 20260906101329 | 72 | 21 | 0.0 | 0.0 | 0.00 | 0.00 | 0.00 | 46 | 1021.1 |
| 20260906100814 | 71 | 6 | 0.0 | 0.0 | 0.00 | 0.00 | 0.00 | 44 | 1021.0 |
| 20260906100345 | 71 | 355 | 0.0 | 0.0 | 0.00 | 0.00 | 0.00 | 45 | 1021.1 |
| 20260906095834 | 71 | 355 | 0.0 | 0.0 | 0.00 | 0.00 | 0.00 | 45 | 1021.0 |
| 20260906095341 | 71 | 355 | 0.0 | 0.0 | 0.00 | 0.00 | 0.00 | 45 | 1020.9 |
| 20260906094818 | 71 | 355 | 0.0 | 0.0 | 0.00 | 0.00 | 0.00 | 44 | 1020.8 |
| 20260906094343 | 71 | 355 | 0.0 | 0.0 | 0.00 | 0.00 | 0.00 | 45 | 1020.9 |
| 20260906093834 | 71 | 355 | 0.0 | 0.0 | 0.00 | 0.00 | 0.00 | 44 | 1020.7 |
| 20260906093320 | 71 | 355 | 0.0 | 0.0 | 0.00 | 0.00 | 0.00 | 43 | 1020.7 |
| 20260906092836 | 71 | 355 | 0.0 | 0.0 | 0.00 | 0.00 | 0.00 | 44 | 1020.7 |
| 20260906092325 | 71 | 355 | 0.0 | 0.0 | 0.00 | 0.00 | 0.00 | 44 | 1020.6 |
| 20260906091830 | 71 | 355 | 0.0 | 0.0 | 0.00 | 0.00 | 0.00 | 44 | 1020.5 |
| 20260906091302 | 71 | 355 | 0.0 | 0.0 | 0.00 | 0.00 | 0.00 | 45 | 1020.7 |
| 20260906090827 | 71 | 355 | 0.0 | 0.0 | 0.00 | 0.00 | 0.00 | 44 | 1020.7 |
| 20260906090333 | 71 | 355 | 0.0 | 0.0 | 0.00 | 0.00 | 0.00 | 45 | 1020.6 |
| 20260906085835 | 71 | 355 | 0.0 | 0.0 | 0.00 | 0.00 | 0.00 | 45 | 1020.2 |
| 20260906085331 | 71 | 355 | 0.0 | 0.0 | 0.00 | 0.00 | 0.00 | 45 | 1020.2 |
| 20260906084828 | 71 | 355 | 0.0 | 0.0 | 0.00 | 0.00 | 0.00 | 46 | 1020.4 |
| 20260906084344 | 71 | 355 | 0.0 | 0.0 | 0.00 | 0.00 | 0.00 | 46 | 1020.3 |
| 20260906083814 | 71 | 355 | 0.0 | 0.0 | 0.00 | 0.00 | 0.00 | 45 | 1020.4 |
| 20260906083314 | 70 | 355 | 0.0 | 0.0 | 0.00 | 0.00 | 0.00 | 45 | 1020.4 |
| 20260906082832 | 70 | 355 | 0.0 | 0.0 | 0.00 | 0.00 | 0.00 | 46 | 1020.5 |
| 20260906082340 | 70 | 355 | 0.0 | 0.0 | 0.00 | 0.00 | 0.00 | 47 | 1020.6 |
| 20260906081845 | 70 | 355 | 0.0 | 0.0 | 0.00 | 0.00 | 0.00 | 47 | 1020.7 |
| 20260906081311 | 70 | 355 | 0.0 | 0.0 | 0.00 | 0.00 | 0.00 | 47 | 1020.5 |
| 20260906080808 | 70 | 355 | 0.0 | 0.0 | 0.00 | 0.00 | 0.00 | 46 | 1020.6 |
| 20260906080336 | 70 | 355 | 0.0 | 0.0 | 0.00 | 0.00 | 0.00 | 46 | 1020.6 |
| 20260906075828 | 70 | 355 | 0.0 | 0.0 | 0.00 | 0.00 | 0.00 | 46 | 1020.7 |
| 20260906075336 | 70 | 355 | 0.0 | 0.0 | 0.00 | 0.00 | 0.00 | 46 | 1020.8 |
| 20260906074841 | 70 | 355 | 0.0 | 0.0 | 0.00 | 0.00 | 0.00 | 46 | 1020.8 |
| 20260906074326 | 70 | 355 | 0.0 | 0.0 | 0.00 | 0.00 | 0.00 | 46 | 1020.9 |
| 20260906073846 | 70 | 355 | 0.0 | 0.0 | 0.00 | 0.00 | 0.00 | 47 | 1020.9 |
| 20260906073322 | 69 | 355 | 0.0 | 0.0 | 0.00 | 0.00 | 0.00 | 47 | 1020.9 |
| 20260906072833 | 70 | 355 | 0.0 | 0.0 | 0.00 | 0.00 | 0.00 | 48 | 1021.1 |
| 20260906072341 | 70 | 355 | 0.0 | 0.0 | 0.00 | 0.00 | 0.00 | 48 | 1021.0 |
| 20260906071833 | 71 | 355 | 0.0 | 0.0 | 0.00 | 0.00 | 0.00 | 46 | 1021.0 |
| 20260906071310 | 71 | 355 | 0.0 | 0.0 | 0.00 | 0.00 | 0.00 | 46 | 1021.1 |
| 20260906070814 | 71 | 355 | 0.0 | 0.0 | 0.00 | 0.00 | 0.00 | 46 | 1021.0 |
| 20260906070318 | 71 | 355 | 0.0 | 0.0 | 0.00 | 0.00 | 0.00 | 46 | 1020.9 |
| 20260906065818 | 71 | 355 | 0.0 | 0.0 | 0.00 | 0.00 | 0.00 | 47 | 1021.0 |
| 20260906065337 | 71 | 355 | 0.0 | 0.0 | 0.00 | 0.00 | 0.00 | 47 | 1021.1 |
| 20260906064845 | 71 | 355 | 0.0 | 0.0 | 0.00 | 0.00 | 0.00 | 45 | 1021.1 |
| 20260906064332 | 72 | 355 | 0.0 | 0.0 | 0.00 | 0.00 | 0.00 | 45 | 1021.1 |
| 20260906063810 | 72 | 355 | 0.0 | 0.0 | 0.00 | 0.00 | 0.00 | 43 | 1021.1 |
| 20260906063310 | 73 | 355 | 0.0 | 0.0 | 0.00 | 0.00 | 0.00 | 42 | 1021.1 |
| 20260906062832 | 73 | 355 | 0.0 | 0.0 | 0.00 | 0.00 | 0.00 | 41 | 1021.0 |
| 20260906062338 | 73 | 355 | 0.0 | 0.0 | 0.00 | 0.00 | 0.00 | 40 | 1021.1 |
| 20260906061822 | 73 | 355 | 0.0 | 0.0 | 0.00 | 0.00 | 0.00 | 40 | 1020.9 |
| 20260906061304 | 74 | 355 | 0.0 | 0.0 | 0.00 | 0.00 | 0.00 | 40 | 1021.0 |
| 20260906060821 | 74 | 355 | 0.0 | 0.0 | 0.00 | 0.00 | 0.00 | 39 | 1020.9 |
| 20260906060304 | 73 | 355 | 0.0 | 0.0 | 0.00 | 0.00 | 0.00 | 39 | 1020.9 |
| 20260906055832 | 73 | 355 | 0.0 | 0.0 | 0.00 | 0.00 | 0.00 | 40 | 1020.7 |
| 20260906055327 | 73 | 355 | 0.0 | 0.0 | 0.00 | 0.00 | 0.00 | 40 | 1020.7 |
| 20260906054840 | 73 | 355 | 0.0 | 0.0 | 0.00 | 0.00 | 0.00 | 40 | 1020.6 |
| 20260906054345 | 73 | 355 | 0.0 | 0.0 | 0.00 | 0.00 | 0.00 | 39 | 1020.6 |
| 20260906053810 | 73 | 355 | 0.0 | 0.0 | 0.00 | 0.00 | 0.00 | 39 | 1020.6 |
| 20260906053318 | 74 | 355 | 0.0 | 0.0 | 0.00 | 0.00 | 0.00 | 39 | 1020.5 |
| 20260906052820 | 74 | 355 | 0.0 | 0.0 | 0.00 | 0.00 | 0.00 | 38 | 1020.5 |
| 20260906052336 | 75 | 355 | 0.0 | 0.0 | 0.00 | 0.00 | 0.00 | 37 | 1020.5 |
| 20260906051834 | 75 | 355 | 0.0 | 0.0 | 0.00 | 0.00 | 0.00 | 36 | 1020.5 |
| 20260906051333 | 76 | 355 | 0.0 | 0.0 | 0.00 | 0.00 | 0.00 | 35 | 1020.5 |
| 20260906050845 | 76 | 355 | 0.0 | 0.0 | 0.00 | 0.00 | 0.00 | 34 | 1020.5 |
| 20260906050306 | 77 | 355 | 0.0 | 0.0 | 0.00 | 0.00 | 0.00 | 33 | 1020.3 |
| 20260906045827 | 77 | 355 | 0.0 | 0.0 | 0.00 | 0.00 | 0.00 | 33 | 1020.4 |
| 20260906045323 | 77 | 355 | 0.0 | 0.0 | 0.00 | 0.00 | 0.00 | 33 | 1020.3 |
| 20260906044804 | 77 | 355 | 0.0 | 0.0 | 0.00 | 0.00 | 0.00 | 33 | 1020.3 |
| 20260906044318 | 77 | 355 | 0.0 | 0.0 | 0.00 | 0.00 | 0.00 | 33 | 1020.3 |
| 20260906043842 | 77 | 355 | 0.0 | 0.0 | 0.00 | 0.00 | 0.00 | 33 | 1020.3 |
| 20260906043346 | 78 | 355 | 0.0 | 0.9 | 0.00 | 0.00 | 0.00 | 33 | 1020.3 |
| 20260906042831 | 77 | 355 | 0.0 | 0.9 | 0.00 | 0.00 | 0.00 | 33 | 1020.3 |
| 20260906042336 | 77 | 8 | 0.0 | 0.0 | 0.00 | 0.00 | 0.00 | 33 | 1020.3 |
| 20260906041804 | 77 | 12 | 0.0 | 0.0 | 0.00 | 0.00 | 0.00 | 33 | 1020.3 |
| 20260906041334 | 78 | 16 | 0.0 | 0.0 | 0.00 | 0.00 | 0.00 | 33 | 1020.3 |
| 20260906040803 | 78 | 17 | 0.0 | 0.0 | 0.00 | 0.00 | 0.00 | 32 | 1020.3 |
| 20260906040339 | 78 | 17 | 0.0 | 0.0 | 0.00 | 0.00 | 0.00 | 33 | 1020.4 |
| 20260906035821 | 78 | 19 | 0.0 | 0.0 | 0.00 | 0.00 | 0.00 | 33 | 1020.4 |
| 20260906035315 | 78 | 19 | 0.0 | 0.0 | 0.00 | 0.00 | 0.00 | 33 | 1020.4 |
| 20260906034840 | 78 | 19 | 0.0 | 0.0 | 0.00 | 0.00 | 0.00 | 33 | 1020.4 |
| 20260906034306 | 78 | 19 | 0.0 | 0.0 | 0.00 | 0.00 | 0.00 | 33 | 1020.3 |
| 20260906033836 | 78 | 19 | 0.0 | 0.9 | 0.00 | 0.00 | 0.00 | 33 | 1020.3 |
| 20260906033331 | 78 | 17 | 0.0 | 1.7 | 0.00 | 0.00 | 0.00 | 33 | 1020.3 |
| 20260906032804 | 78 | 327 | 0.0 | 0.0 | 0.00 | 0.00 | 0.00 | 34 | 1020.4 |
| 20260906032329 | 78 | 327 | 0.0 | 0.0 | 0.00 | 0.00 | 0.00 | 34 | 1020.2 |
| 20260906031803 | 79 | 327 | 0.0 | 0.0 | 0.00 | 0.00 | 0.00 | 34 | 1020.0 |
| 20260906031329 | 79 | 326 | 0.0 | 0.0 | 0.00 | 0.00 | 0.00 | 34 | 1020.0 |
| 20260906030827 | 79 | 326 | 0.0 | 0.0 | 0.00 | 0.00 | 0.00 | 34 | 1019.9 |
| 20260906030314 | 79 | 326 | 0.0 | 0.0 | 0.00 | 0.00 | 0.00 | 34 | 1019.8 |
| 20260906025815 | 79 | 324 | 0.0 | 0.0 | 0.00 | 0.00 | 0.00 | 35 | 1019.8 |
| 20260906025306 | 79 | 320 | 0.0 | 0.0 | 0.00 | 0.00 | 0.00 | 35 | 1019.8 |
| 20260906024819 | 79 | 319 | 0.0 | 0.0 | 0.00 | 0.00 | 0.00 | 35 | 1019.6 |
| 20260906024320 | 79 | 319 | 0.0 | 0.9 | 0.00 | 0.00 | 0.00 | 35 | 1019.6 |
| 20260906023846 | 79 | 312 | 0.0 | 0.9 | 0.00 | 0.00 | 0.00 | 36 | 1019.5 |
| 20260906023331 | 79 | 288 | 0.0 | 0.0 | 0.00 | 0.00 | 0.00 | 35 | 1019.5 |
| 20260906022819 | 79 | 285 | 0.0 | 0.0 | 0.00 | 0.00 | 0.00 | 35 | 1019.4 |
| 20260906022306 | 79 | 284 | 0.0 | 0.0 | 0.00 | 0.00 | 0.00 | 36 | 1019.4 |
| 20260906021835 | 79 | 284 | 0.0 | 0.0 | 0.00 | 0.00 | 0.00 | 37 | 1019.2 |
| 20260906021331 | 79 | 284 | 0.0 | 0.0 | 0.00 | 0.00 | 0.00 | 36 | 1019.2 |
| 20260906020842 | 80 | 284 | 0.0 | 0.0 | 0.00 | 0.00 | 0.00 | 35 | 1019.2 |
| 20260906020315 | 81 | 284 | 0.0 | 0.0 | 0.00 | 0.00 | 0.00 | 34 | 1019.2 |
| 20260906015824 | 82 | 284 | 0.0 | 0.0 | 0.00 | 0.00 | 0.00 | 33 | 1019.2 |
| 20260906015322 | 82 | 284 | 0.0 | 0.0 | 0.00 | 0.00 | 0.00 | 32 | 1019.1 |
| 20260906014838 | 82 | 284 | 0.0 | 0.0 | 0.00 | 0.00 | 0.00 | 32 | 1019.2 |
| 20260906014343 | 83 | 284 | 0.0 | 0.0 | 0.00 | 0.00 | 0.00 | 31 | 1019.1 |
| 20260906013806 | 83 | 284 | 0.0 | 0.0 | 0.00 | 0.00 | 0.00 | 31 | 1019.1 |
| 20260906013311 | 84 | 284 | 0.0 | 0.0 | 0.00 | 0.00 | 0.00 | 30 | 1019.1 |
| 20260906012803 | 85 | 314 | 0.0 | 0.0 | 0.00 | 0.00 | 0.00 | 29 | 1019.1 |
| 20260906012326 | 85 | 314 | 0.0 | 0.0 | 0.00 | 0.00 | 0.00 | 29 | 1019.1 |
| 20260906011833 | 85 | 314 | 0.0 | 0.0 | 0.00 | 0.00 | 0.00 | 29 | 1019.1 |
| 20260906011310 | 85 | 286 | 0.0 | 1.7 | 0.00 | 0.00 | 0.00 | 29 | 1019.1 |
| 20260906010817 | 85 | 224 | 0.0 | 2.6 | 0.00 | 0.00 | 0.00 | 29 | 1019.2 |
| 20260906010311 | 86 | 234 | 0.0 | 2.6 | 0.00 | 0.00 | 0.00 | 28 | 1019.2 |
| 20260906005840 | 86 | 235 | 0.0 | 2.6 | 0.00 | 0.00 | 0.00 | 28 | 1019.2 |
| 20260906005329 | 86 | 252 | 0.9 | 3.5 | 0.00 | 0.00 | 0.00 | 27 | 1019.2 |
| 20260906004839 | 87 | 254 | 0.9 | 6.1 | 0.00 | 0.00 | 0.00 | 27 | 1019.2 |
| 20260906004303 | 87 | 236 | 1.7 | 6.1 | 0.00 | 0.00 | 0.00 | 27 | 1019.2 |
| 20260906003821 | 87 | 248 | 0.0 | 5.2 | 0.00 | 0.00 | 0.00 | 27 | 1019.2 |
| 20260906003305 | 88 | 251 | 0.9 | 3.5 | 0.00 | 0.00 | 0.00 | 26 | 1019.3 |
| 20260906002831 | 87 | 242 | 0.9 | 2.6 | 0.00 | 0.00 | 0.00 | 26 | 1019.2 |
| 20260906002319 | 88 | 311 | 0.0 | 1.7 | 0.00 | 0.00 | 0.00 | 26 | 1019.2 |
| 20260906001804 | 88 | 274 | 0.0 | 6.1 | 0.00 | 0.00 | 0.00 | 26 | 1019.3 |
| 20260906001335 | 89 | 256 | 0.0 | 6.1 | 0.00 | 0.00 | 0.00 | 25 | 1019.4 |
| 20260906000812 | 89 | 340 | 0.0 | 5.2 | 0.00 | 0.00 | 0.00 | 25 | 1019.3 |
| 20260906000307 | 88 | 245 | 1.7 | 5.2 | 0.00 | 0.00 | 0.00 | 25 | 1019.2 |
| 20260905235842 | 88 | 244 | 1.7 | 5.2 | 0.00 | 0.00 | 0.00 | 25 | 1018.9 |
| 20260905235307 | 89 | 263 | 2.6 | 7.8 | 0.00 | 0.00 | 0.00 | 25 | 1018.8 |
| 20260905234806 | 88 | 257 | 2.6 | 7.8 | 0.00 | 0.00 | 0.00 | 26 | 1018.9 |